Location: Jangalapalle
(16.8036°N, 80.6370°E)
Time: 10:45:31
(UTC+00:00)

OAO 2 Rocket - Pass Details

Date: 05 August 2024
Orbit: 672 x 738 km, 35.0° (Epoch: 08 September)

Event Time Altitude Azimuth Distance (km) Brightness Sun altitude
Exits shadow 22:53:47 24° 192° (SSW) 1,465 4.6 -19.8°
Maximum altitude 22:56:09 37° 143° (SE) 1,112 4.4 -19.3°
Drops below altitude 10° 23:00:52 10° 77° (ENE) 2,185 7.1 -18.3°
Sets 23:03:25 0° 69° (ENE) 3,093 8.4 -17.8°
